VAF230 KMSY-KCHS

Flight info

Callsign VAF230
Flight time 1h 25m
Altitude 37000
Route CEW AMG SAV BAGGY3
Aircraft B739/M-SDE2E3FGHIRWXY/LB1

Departure

Time 2026-04-26 20:28
Airport Louis Armstrong New Orleans International Airport (KMSY)

Arrival

Time 2026-04-26 21:53
Airport Charleston International Airport (KCHS)
Time Latitude Longitude Altitude Speed Heading
2026-04-26 19:56 29.98712 -90.25648 12 ft 0 kts 139°
2026-04-26 20:19 29.98718 -90.25654 12 ft 2 kts 139°
2026-04-26 20:19 29.98731 -90.25668 12 ft 3 kts 139°
2026-04-26 20:20 29.98746 -90.25683 12 ft 3 kts 139°
2026-04-26 20:20 29.98759 -90.25700 12 ft 3 kts 117°
2026-04-26 20:20 29.98764 -90.25723 12 ft 3 kts 84°
2026-04-26 20:20 29.98757 -90.25745 12 ft 3 kts 54°
2026-04-26 20:21 29.98753 -90.25750 12 ft 0 kts 49°
2026-04-26 20:22 29.98759 -90.25746 12 ft 3 kts 21°
2026-04-26 20:22 29.98817 -90.25732 12 ft 14 kts 12°
2026-04-26 20:22 29.98923 -90.25702 12 ft 15 kts 35°
2026-04-26 20:23 29.98927 -90.25639 12 ft 5 kts 103°
2026-04-26 20:23 29.98917 -90.25588 12 ft 9 kts 103°
2026-04-26 20:23 29.98895 -90.25501 12 ft 13 kts 107°
2026-04-26 20:23 29.98864 -90.25384 12 ft 17 kts 107°
2026-04-26 20:24 29.98828 -90.25246 12 ft 19 kts 105°
2026-04-26 20:24 29.98862 -90.25150 12 ft 12 kts 16°
2026-04-26 20:24 29.98942 -90.25126 12 ft 15 kts 15°
2026-04-26 20:24 29.99066 -90.25087 12 ft 22 kts 15°
2026-04-26 20:25 29.99199 -90.25044 12 ft 27 kts 16°
2026-04-26 20:25 29.99328 -90.25000 12 ft 31 kts 15°
2026-04-26 20:25 29.99628 -90.24905 12 ft 35 kts 11°
2026-04-26 20:25 29.99866 -90.24828 12 ft 35 kts 17°
2026-04-26 20:26 30.00078 -90.24756 12 ft 28 kts 16°
2026-04-26 20:26 30.00241 -90.24710 12 ft 20 kts 14°
2026-04-26 20:26 30.00302 -90.24638 12 ft 9 kts 82°
2026-04-26 20:26 30.00299 -90.24573 12 ft 9 kts 122°
2026-04-26 20:27 30.00265 -90.24562 12 ft 0 kts 196°
2026-04-26 20:27 30.00195 -90.24585 12 ft 36 kts 196°
2026-04-26 20:27 29.99757 -90.24727 12 ft 93 kts 196°
2026-04-26 20:28 29.98959 -90.24983 12 ft 144 kts 195°
2026-04-26 20:28 29.97892 -90.25320 289 ft 164 kts 194°
2026-04-26 20:28 29.96783 -90.25676 888 ft 170 kts 194°
2026-04-26 20:28 29.95562 -90.26057 1216 ft 192 kts 194°
2026-04-26 20:29 29.94195 -90.26479 1490 ft 217 kts 194°
2026-04-26 20:29 29.92655 -90.26947 1857 ft 238 kts 194°
2026-04-26 20:29 29.91062 -90.27427 2600 ft 240 kts 194°
2026-04-26 20:29 29.89436 -90.27911 3355 ft 245 kts 194°
2026-04-26 20:30 29.87741 -90.28412 4121 ft 248 kts 194°
2026-04-26 20:30 29.86073 -90.28898 4973 ft 252 kts 194°
2026-04-26 20:30 29.84354 -90.29390 5771 ft 257 kts 194°
2026-04-26 20:30 29.82585 -90.29799 6542 ft 263 kts 182°
2026-04-26 20:31 29.80811 -90.29261 7243 ft 273 kts 150°
2026-04-26 20:31 29.79478 -90.27652 7778 ft 289 kts 118°
2026-04-26 20:31 29.79021 -90.25384 8425 ft 296 kts 90°
2026-04-26 20:31 29.79308 -90.23044 9193 ft 297 kts 76°
2026-04-26 20:32 29.79860 -90.20726 9856 ft 304 kts 72°
2026-04-26 20:32 29.80499 -90.18392 10543 ft 308 kts 70°
2026-04-26 20:32 29.81193 -90.16028 11095 ft 318 kts 68°
2026-04-26 20:32 29.81937 -90.13546 11376 ft 337 kts 68°
2026-04-26 20:33 29.82726 -90.10927 11622 ft 356 kts 68°
2026-04-26 20:33 29.83558 -90.08174 11946 ft 370 kts 68°
2026-04-26 20:33 29.84413 -90.05346 12490 ft 376 kts 68°
2026-04-26 20:33 29.85283 -90.02474 13097 ft 381 kts 68°
2026-04-26 20:34 29.86151 -89.99607 13684 ft 386 kts 67°
2026-04-26 20:34 29.87042 -89.96664 14276 ft 390 kts 67°
2026-04-26 20:34 29.87942 -89.93696 14866 ft 395 kts 67°
2026-04-26 20:34 29.88852 -89.90689 15456 ft 400 kts 67°
2026-04-26 20:35 29.89773 -89.87646 16061 ft 403 kts 66°
2026-04-26 20:35 29.90729 -89.84600 16643 ft 406 kts 65°
2026-04-26 20:35 29.91774 -89.81549 17189 ft 410 kts 63°
2026-04-26 20:35 29.92849 -89.78491 17725 ft 414 kts 63°
2026-04-26 20:36 29.93929 -89.75402 18242 ft 418 kts 63°
2026-04-26 20:36 29.95002 -89.72312 18744 ft 421 kts 63°
2026-04-26 20:36 29.96090 -89.69173 19332 ft 422 kts 64°
2026-04-26 20:36 29.97177 -89.66007 19790 ft 427 kts 64°
2026-04-26 20:37 29.98279 -89.62790 20232 ft 431 kts 64°
2026-04-26 20:37 29.99376 -89.59561 20681 ft 435 kts 64°
2026-04-26 20:37 30.00479 -89.56293 21123 ft 438 kts 64°
2026-04-26 20:37 30.01589 -89.52997 21529 ft 442 kts 64°
2026-04-26 20:38 30.02701 -89.49676 21924 ft 446 kts 64°
2026-04-26 20:38 30.03820 -89.46323 22330 ft 449 kts 64°
2026-04-26 20:38 30.04942 -89.42941 22721 ft 452 kts 65°
2026-04-26 20:38 30.06065 -89.39536 23093 ft 455 kts 65°
2026-04-26 20:39 30.07194 -89.36100 23413 ft 459 kts 65°
2026-04-26 20:39 30.07941 -89.33813 23655 ft 461 kts 65°
2026-04-26 20:39 30.09441 -89.29207 24110 ft 464 kts 65°
2026-04-26 20:39 30.10574 -89.25708 24515 ft 465 kts 65°
2026-04-26 20:40 30.11582 -89.22141 24823 ft 470 kts 68°
2026-04-26 20:40 30.12655 -89.18558 25116 ft 470 kts 65°
2026-04-26 20:40 30.13790 -89.15028 25568 ft 469 kts 65°
2026-04-26 20:40 30.14935 -89.11485 25803 ft 473 kts 65°
2026-04-26 20:41 30.16083 -89.07913 26072 ft 475 kts 65°
2026-04-26 20:41 30.17233 -89.04323 26345 ft 478 kts 65°
2026-04-26 20:41 30.18320 -89.00685 26613 ft 481 kts 67°
2026-04-26 20:41 30.19371 -88.96987 26872 ft 483 kts 67°
2026-04-26 20:42 30.20415 -88.93293 27122 ft 485 kts 67°
2026-04-26 20:42 30.21456 -88.89616 27365 ft 487 kts 67°
2026-04-26 20:42 30.22512 -88.85883 27601 ft 489 kts 67°
2026-04-26 20:42 30.23572 -88.82134 27830 ft 491 kts 67°
2026-04-26 20:43 30.24639 -88.78364 28049 ft 493 kts 67°
2026-04-26 20:43 30.25707 -88.74585 28334 ft 492 kts 67°
2026-04-26 20:43 30.26768 -88.70828 28607 ft 493 kts 67°
2026-04-26 20:43 30.27840 -88.67054 28759 ft 496 kts 68°
2026-04-26 20:44 30.28927 -88.63250 28925 ft 498 kts 68°
2026-04-26 20:44 30.30001 -88.59486 29118 ft 499 kts 68°
2026-04-26 20:44 30.31089 -88.55665 29374 ft 499 kts 68°
2026-04-26 20:44 30.32172 -88.51848 29655 ft 498 kts 68°
2026-04-26 20:45 30.33250 -88.48039 29908 ft 498 kts 68°
2026-04-26 20:45 30.34328 -88.44225 30168 ft 498 kts 68°
2026-04-26 20:45 30.35402 -88.40417 30419 ft 498 kts 68°
2026-04-26 20:45 30.36476 -88.36604 30668 ft 497 kts 68°
2026-04-26 20:46 30.37545 -88.32797 30912 ft 497 kts 68°
2026-04-26 20:46 30.38615 -88.28986 31155 ft 497 kts 68°
2026-04-26 20:46 30.39684 -88.25176 31390 ft 496 kts 68°
2026-04-26 20:46 30.40751 -88.21363 31611 ft 497 kts 68°
2026-04-26 20:47 30.41808 -88.17555 31838 ft 496 kts 67°
2026-04-26 20:47 30.43925 -88.09969 32183 ft 498 kts 66°
2026-04-26 20:47 30.44994 -88.06139 32303 ft 500 kts 66°
2026-04-26 20:48 30.46061 -88.02310 32542 ft 499 kts 66°
2026-04-26 20:48 30.47125 -87.98484 32752 ft 499 kts 66°
2026-04-26 20:48 30.48192 -87.94645 32929 ft 499 kts 66°
2026-04-26 20:48 30.49257 -87.90804 33129 ft 499 kts 66°
2026-04-26 20:49 30.50315 -87.86981 33374 ft 497 kts 66°
2026-04-26 20:49 30.51359 -87.83208 33554 ft 497 kts 66°
2026-04-26 20:49 30.52417 -87.79376 33724 ft 497 kts 66°
2026-04-26 20:49 30.53471 -87.75552 33920 ft 496 kts 66°
2026-04-26 20:50 30.54518 -87.71749 34129 ft 495 kts 66°
2026-04-26 20:50 30.55564 -87.67948 34308 ft 494 kts 66°
2026-04-26 20:50 30.56609 -87.64141 34444 ft 495 kts 66°
2026-04-26 20:50 30.57655 -87.60329 34595 ft 495 kts 66°
2026-04-26 20:51 30.58696 -87.56530 34748 ft 495 kts 66°
2026-04-26 20:51 30.59739 -87.52718 34896 ft 494 kts 66°
2026-04-26 20:51 30.60764 -87.48966 35044 ft 494 kts 66°
2026-04-26 20:51 30.61803 -87.45158 35183 ft 494 kts 66°
2026-04-26 20:52 30.62841 -87.41351 35323 ft 494 kts 66°
2026-04-26 20:52 30.63878 -87.37539 35468 ft 494 kts 66°
2026-04-26 20:52 30.64912 -87.33738 35596 ft 494 kts 66°
2026-04-26 20:52 30.65948 -87.29919 35725 ft 494 kts 66°
2026-04-26 20:53 30.66980 -87.26115 35853 ft 494 kts 66°
2026-04-26 20:53 30.68010 -87.22312 35973 ft 494 kts 66°
2026-04-26 20:53 30.69027 -87.18551 36183 ft 491 kts 66°
2026-04-26 20:53 30.70047 -87.14776 36327 ft 490 kts 66°
2026-04-26 20:54 30.71069 -87.10988 36379 ft 492 kts 66°
2026-04-26 20:54 30.72090 -87.07195 36494 ft 491 kts 66°
2026-04-26 20:54 30.73113 -87.03400 36602 ft 491 kts 66°
2026-04-26 20:55 30.74823 -86.97101 36773 ft 491 kts 66°
2026-04-26 20:55 30.75840 -86.93328 36992 ft 484 kts 66°
2026-04-26 20:55 30.76839 -86.89581 36957 ft 486 kts 66°
2026-04-26 20:56 30.78851 -86.82025 36964 ft 491 kts 66°
2026-04-26 20:56 30.80876 -86.74399 36964 ft 495 kts 66°
2026-04-26 20:57 30.82870 -86.66753 36958 ft 499 kts 70°
2026-04-26 20:57 30.84416 -86.58837 36956 ft 502 kts 73°
2026-04-26 20:58 30.85839 -86.50876 36957 ft 502 kts 73°
2026-04-26 20:58 30.87268 -86.42974 36952 ft 502 kts 73°
2026-04-26 20:59 30.88711 -86.35032 36954 ft 501 kts 73°
2026-04-26 20:59 30.90164 -86.27083 36954 ft 501 kts 72°
2026-04-26 21:00 30.91641 -86.19149 36947 ft 501 kts 72°
2026-04-26 21:00 30.93106 -86.11220 36947 ft 501 kts 73°
2026-04-26 21:01 30.94554 -86.03321 36954 ft 499 kts 73°
2026-04-26 21:01 30.95995 -85.95419 36945 ft 499 kts 73°
2026-04-26 21:02 30.97436 -85.87486 36939 ft 500 kts 73°
2026-04-26 21:02 30.98873 -85.79544 36937 ft 500 kts 73°
2026-04-26 21:03 31.00293 -85.71665 36937 ft 500 kts 73°
2026-04-26 21:03 31.01713 -85.63757 36934 ft 497 kts 73°
2026-04-26 21:04 31.03123 -85.55873 36938 ft 497 kts 73°
2026-04-26 21:04 31.04527 -85.47988 36949 ft 495 kts 73°
2026-04-26 21:05 31.05924 -85.40122 36955 ft 494 kts 73°
2026-04-26 21:05 31.07316 -85.32249 36959 ft 496 kts 74°
2026-04-26 21:06 31.08700 -85.24398 36950 ft 498 kts 74°
2026-04-26 21:06 31.10092 -85.16463 36952 ft 499 kts 73°
2026-04-26 21:07 31.11483 -85.08512 36958 ft 500 kts 74°
2026-04-26 21:07 31.12865 -85.00580 36961 ft 497 kts 74°
2026-04-26 21:08 31.14238 -84.92670 36964 ft 496 kts 74°
2026-04-26 21:08 31.15605 -84.84762 36966 ft 497 kts 74°
2026-04-26 21:09 31.16969 -84.76842 36961 ft 497 kts 74°
2026-04-26 21:09 31.18319 -84.68974 36962 ft 497 kts 74°
2026-04-26 21:10 31.19673 -84.61057 36962 ft 496 kts 74°
2026-04-26 21:10 31.21022 -84.53131 36958 ft 497 kts 74°
2026-04-26 21:11 31.22362 -84.45229 36951 ft 500 kts 75°
2026-04-26 21:11 31.23707 -84.37267 36948 ft 499 kts 75°
2026-04-26 21:12 31.25043 -84.29326 36943 ft 496 kts 75°
2026-04-26 21:12 31.26369 -84.21409 36941 ft 497 kts 74°
2026-04-26 21:13 31.27695 -84.13464 36940 ft 498 kts 74°
2026-04-26 21:13 31.29018 -84.05512 36937 ft 498 kts 74°
2026-04-26 21:14 31.30327 -83.97607 36937 ft 497 kts 74°
2026-04-26 21:14 31.31638 -83.89661 36936 ft 498 kts 74°
2026-04-26 21:15 31.32944 -83.81717 36933 ft 498 kts 74°
2026-04-26 21:15 31.34247 -83.73754 36932 ft 498 kts 74°
2026-04-26 21:16 31.35548 -83.65756 36936 ft 501 kts 74°
2026-04-26 21:16 31.36840 -83.57804 36928 ft 499 kts 74°
2026-04-26 21:17 31.38132 -83.49816 36931 ft 500 kts 74°
2026-04-26 21:17 31.39420 -83.41812 36933 ft 499 kts 74°
2026-04-26 21:18 31.40698 -83.33846 36933 ft 496 kts 74°
2026-04-26 21:18 31.41968 -83.25892 36939 ft 497 kts 74°
2026-04-26 21:19 31.43226 -83.17980 36942 ft 498 kts 74°
2026-04-26 21:19 31.44492 -83.09984 36944 ft 500 kts 74°
2026-04-26 21:20 31.45754 -83.01978 36949 ft 499 kts 75°
2026-04-26 21:20 31.47010 -82.93984 36953 ft 499 kts 75°
2026-04-26 21:21 31.48271 -82.85976 36957 ft 499 kts 74°
2026-04-26 21:21 31.49523 -82.78013 36956 ft 499 kts 75°
2026-04-26 21:22 31.50760 -82.70013 36948 ft 499 kts 75°
2026-04-26 21:22 31.51985 -82.62026 36931 ft 497 kts 75°
2026-04-26 21:23 31.54341 -82.50242 36922 ft 489 kts 64°
2026-04-26 21:23 31.57203 -82.43127 36914 ft 482 kts 54°
2026-04-26 21:24 31.60480 -82.36277 36911 ft 481 kts 54°
2026-04-26 21:24 31.63741 -82.29413 36913 ft 481 kts 54°
2026-04-26 21:25 31.66956 -82.22598 36906 ft 475 kts 54°
2026-04-26 21:25 31.70159 -82.15768 36905 ft 480 kts 54°
2026-04-26 21:26 31.73411 -82.08884 36898 ft 485 kts 54°
2026-04-26 21:26 31.75051 -82.05397 36596 ft 491 kts 54°
2026-04-26 21:26 31.76705 -82.01872 36003 ft 491 kts 54°
2026-04-26 21:27 31.78355 -81.98349 35264 ft 491 kts 54°
2026-04-26 21:27 31.79997 -81.94837 34518 ft 492 kts 55°
2026-04-26 21:27 31.81640 -81.91318 33944 ft 488 kts 55°
2026-04-26 21:27 31.83269 -81.87825 33408 ft 483 kts 56°
2026-04-26 21:28 31.84879 -81.84367 32881 ft 479 kts 56°
2026-04-26 21:28 31.86473 -81.80939 32358 ft 474 kts 56°
2026-04-26 21:28 31.88029 -81.77588 31845 ft 470 kts 56°
2026-04-26 21:28 31.89589 -81.74227 31332 ft 466 kts 56°
2026-04-26 21:29 31.91138 -81.70884 30822 ft 462 kts 56°
2026-04-26 21:29 31.92673 -81.67571 30320 ft 457 kts 56°
2026-04-26 21:29 31.94185 -81.64303 29824 ft 453 kts 56°
2026-04-26 21:29 31.95689 -81.61051 29328 ft 449 kts 56°
2026-04-26 21:30 31.97180 -81.57825 28832 ft 446 kts 56°
2026-04-26 21:30 31.98638 -81.54667 28345 ft 442 kts 57°
2026-04-26 21:30 32.00108 -81.51500 27857 ft 438 kts 57°
2026-04-26 21:30 32.01560 -81.48360 27369 ft 435 kts 57°
2026-04-26 21:31 32.03004 -81.45235 26883 ft 432 kts 57°
2026-04-26 21:31 32.04432 -81.42131 26397 ft 428 kts 57°
2026-04-26 21:31 32.05847 -81.39056 25923 ft 425 kts 57°
2026-04-26 21:31 32.07252 -81.35997 25446 ft 422 kts 58°
2026-04-26 21:32 32.08637 -81.32969 24973 ft 419 kts 58°
2026-04-26 21:32 32.10012 -81.29948 24500 ft 415 kts 57°
2026-04-26 21:32 32.11381 -81.26962 24028 ft 413 kts 58°
2026-04-26 21:32 32.12723 -81.24018 23572 ft 410 kts 58°
2026-04-26 21:33 32.14070 -81.21069 23107 ft 407 kts 57°
2026-04-26 21:33 32.15583 -81.18281 22648 ft 401 kts 50°
2026-04-26 21:33 32.17220 -81.15638 22186 ft 398 kts 49°
2026-04-26 21:33 32.18877 -81.13042 21729 ft 394 kts 48°
2026-04-26 21:34 32.20519 -81.10464 21269 ft 391 kts 49°
2026-04-26 21:34 32.22154 -81.07894 20818 ft 388 kts 49°
2026-04-26 21:34 32.23750 -81.05375 20371 ft 385 kts 49°
2026-04-26 21:34 32.25353 -81.02866 19926 ft 382 kts 49°
2026-04-26 21:35 32.26937 -81.00351 19479 ft 379 kts 49°
2026-04-26 21:35 32.28502 -80.97858 19028 ft 376 kts 50°
2026-04-26 21:35 32.30044 -80.95393 18580 ft 373 kts 49°
2026-04-26 21:35 32.31587 -80.92940 18139 ft 370 kts 50°
2026-04-26 21:36 32.33126 -80.90510 17687 ft 367 kts 49°
2026-04-26 21:36 32.34139 -80.88913 17386 ft 365 kts 50°
2026-04-26 21:36 32.36167 -80.85710 16791 ft 362 kts 50°
2026-04-26 21:36 32.37665 -80.83326 16344 ft 359 kts 51°
2026-04-26 21:37 32.39146 -80.80963 15899 ft 356 kts 51°
2026-04-26 21:37 32.40597 -80.78644 15458 ft 354 kts 51°
2026-04-26 21:37 32.42058 -80.76306 15012 ft 352 kts 51°
2026-04-26 21:37 32.43507 -80.73985 14582 ft 349 kts 51°
2026-04-26 21:38 32.44939 -80.71688 14148 ft 346 kts 52°
2026-04-26 21:38 32.46365 -80.69400 13707 ft 343 kts 51°
2026-04-26 21:38 32.47781 -80.67127 13264 ft 341 kts 51°
2026-04-26 21:38 32.49186 -80.64872 12821 ft 338 kts 51°
2026-04-26 21:39 32.50575 -80.62643 12380 ft 336 kts 51°
2026-04-26 21:39 32.51956 -80.60424 11939 ft 333 kts 51°
2026-04-26 21:39 32.53333 -80.58220 11498 ft 331 kts 51°
2026-04-26 21:39 32.54697 -80.56029 11058 ft 329 kts 51°
2026-04-26 21:40 32.56032 -80.53880 10630 ft 326 kts 51°
2026-04-26 21:40 32.57361 -80.51740 10411 ft 316 kts 51°
2026-04-26 21:40 32.58644 -80.49670 10240 ft 305 kts 51°
2026-04-26 21:40 32.59878 -80.47683 10075 ft 294 kts 51°
2026-04-26 21:41 32.61075 -80.45749 9845 ft 287 kts 51°
2026-04-26 21:41 32.62274 -80.43878 9502 ft 284 kts 50°
2026-04-26 21:41 32.63499 -80.42046 9155 ft 281 kts 49°
2026-04-26 21:41 32.64692 -80.40261 8816 ft 278 kts 50°
2026-04-26 21:42 32.65499 -80.39049 8584 ft 276 kts 50°
2026-04-26 21:42 32.67068 -80.36691 8137 ft 273 kts 50°
2026-04-26 21:42 32.68185 -80.34876 7795 ft 272 kts 56°
2026-04-26 21:42 32.69057 -80.32894 7457 ft 270 kts 64°
2026-04-26 21:43 32.69529 -80.31529 7235 ft 269 kts 67°
2026-04-26 21:43 32.70170 -80.29439 6899 ft 267 kts 69°
2026-04-26 21:43 32.70777 -80.27368 6565 ft 264 kts 69°
2026-04-26 21:43 32.71384 -80.25310 6233 ft 262 kts 69°
2026-04-26 21:44 32.71986 -80.23275 5904 ft 260 kts 69°
2026-04-26 21:44 32.72585 -80.21262 5577 ft 257 kts 69°
2026-04-26 21:44 32.73172 -80.19291 5259 ft 255 kts 69°
2026-04-26 21:44 32.73764 -80.17308 4934 ft 253 kts 69°
2026-04-26 21:45 32.74352 -80.15343 4599 ft 251 kts 69°
2026-04-26 21:45 32.74933 -80.13403 4371 ft 245 kts 69°
2026-04-26 21:45 32.75499 -80.11510 4058 ft 242 kts 69°
2026-04-26 21:45 32.76063 -80.09629 3702 ft 240 kts 69°
2026-04-26 21:46 32.76617 -80.07784 3383 ft 235 kts 69°
2026-04-26 21:46 32.77154 -80.05965 3088 ft 230 kts 72°
2026-04-26 21:46 32.77208 -80.04122 2980 ft 222 kts 102°
2026-04-26 21:46 32.76468 -80.02547 2953 ft 221 kts 133°
2026-04-26 21:47 32.75130 -80.01609 2919 ft 228 kts 163°
2026-04-26 21:47 32.73571 -80.01505 2974 ft 228 kts 184°
2026-04-26 21:47 32.71965 -80.01696 3007 ft 229 kts 183°
2026-04-26 21:47 32.70394 -80.01654 2996 ft 229 kts 169°
2026-04-26 21:48 32.68894 -80.01058 2968 ft 227 kts 146°
2026-04-26 21:48 32.67906 -79.99646 2980 ft 225 kts 116°
2026-04-26 21:48 32.67556 -79.97854 2970 ft 223 kts 85°
2026-04-26 21:48 32.68021 -79.96123 3013 ft 222 kts 62°
2026-04-26 21:49 32.68832 -79.94549 3027 ft 224 kts 57°
2026-04-26 21:49 32.69632 -79.93006 3007 ft 224 kts 52°
2026-04-26 21:49 32.70870 -79.91938 2975 ft 220 kts 18°
2026-04-26 21:49 32.72369 -79.91738 3002 ft 218 kts 355°
2026-04-26 21:50 32.73851 -79.92144 3009 ft 219 kts 340°
2026-04-26 21:50 32.75244 -79.92893 3011 ft 219 kts 334°
2026-04-26 21:50 32.76605 -79.93747 2897 ft 224 kts 330°
2026-04-26 21:50 32.77956 -79.94720 2618 ft 229 kts 328°
2026-04-26 21:51 32.79298 -79.95732 2316 ft 227 kts 328°
2026-04-26 21:51 32.80623 -79.96732 2032 ft 224 kts 328°
2026-04-26 21:51 32.81923 -79.97714 1740 ft 219 kts 329°
2026-04-26 21:51 32.83196 -79.98677 1435 ft 212 kts 328°
2026-04-26 21:52 32.84393 -79.99581 1155 ft 200 kts 328°
2026-04-26 21:52 32.85518 -80.00433 910 ft 184 kts 328°
2026-04-26 21:52 32.86559 -80.01221 672 ft 169 kts 329°
2026-04-26 21:52 32.87532 -80.01956 443 ft 161 kts 329°
2026-04-26 21:53 32.88455 -80.02655 240 ft 153 kts 329°
2026-04-26 21:53 32.89318 -80.03318 72 ft 141 kts 330°
2026-04-26 21:53 32.90036 -80.03851 53 ft 90 kts 329°
2026-04-26 21:53 32.90357 -80.04096 53 ft 25 kts 322°
2026-04-26 21:54 32.90437 -80.04071 53 ft 10 kts 55°
2026-04-26 21:54 32.90463 -80.04026 53 ft 4 kts 55°
2026-04-26 21:54 32.90471 -80.04011 53 ft 2 kts 60°
2026-04-26 21:54 32.90477 -80.03998 53 ft 2 kts 60°
2026-04-26 21:55 32.90482 -80.03987 53 ft 2 kts 60°
2026-04-26 21:55 32.90496 -80.03947 53 ft 8 kts 85°
2026-04-26 21:55 32.90450 -80.03868 53 ft 16 kts 140°
2026-04-26 21:55 32.90346 -80.03760 53 ft 22 kts 137°
2026-04-26 21:56 32.90245 -80.03652 53 ft 16 kts 147°
2026-04-26 21:56 32.90160 -80.03615 53 ft 10 kts 162°
2026-04-26 21:56 32.90113 -80.03591 53 ft 9 kts 156°
2026-04-26 21:56 32.90014 -80.03566 53 ft 17 kts 183°
2026-04-26 21:57 32.89921 -80.03572 53 ft 10 kts 182°
2026-04-26 21:57 32.89882 -80.03573 53 ft 2 kts 181°
2026-04-26 21:57 32.89860 -80.03573 53 ft 9 kts 180°
2026-04-26 21:57 32.89744 -80.03576 53 ft 22 kts 181°
2026-04-26 21:58 32.89600 -80.03582 53 ft 18 kts 181°
2026-04-26 21:58 32.89502 -80.03581 53 ft 11 kts 181°
2026-04-26 21:58 32.89421 -80.03585 53 ft 13 kts 183°
2026-04-26 21:58 32.89320 -80.03590 53 ft 16 kts 182°
2026-04-26 21:59 32.89220 -80.03594 53 ft 12 kts 181°
2026-04-26 21:59 32.89150 -80.03596 53 ft 12 kts 181°
2026-04-26 21:59 32.89041 -80.03600 53 ft 15 kts 181°
2026-04-26 21:59 32.88959 -80.03607 53 ft 8 kts 186°
2026-04-26 22:00 32.88915 -80.03615 53 ft 8 kts 190°
2026-04-26 22:00 32.88804 -80.03636 53 ft 23 kts 188°
2026-04-26 22:00 32.88674 -80.03656 53 ft 14 kts 187°
2026-04-26 22:00 32.88604 -80.03668 53 ft 9 kts 188°
2026-04-26 22:01 32.88561 -80.03671 53 ft 3 kts 153°
2026-04-26 22:01 32.88545 -80.03653 53 ft 1 kts 135°
2026-04-26 22:01 32.88541 -80.03649 53 ft 0 kts 135°